Radiosonde details



Informationen :

Serial : D26001738
Type : Graw DFM
Frequency : 403.210MHz
Launchsite : Spokane, Wa.
Nearest town : Chewelah, US (20.2km)

Altitude (Max) : 34430m at 2026-09-04 07:20:20
Speed (Max) : 150km/h at altitude 9987m

Average speed : 51km/h
Average ascent rate : 5m/s
Average descent rate : -14m/s
Ascent rate (Max) : 15.8m/s
Descent rate (Max): -37.6m/s

First frame :
WB7NNF at 2026-09-04 05:45:32 at altitude 5077m (OG: 4319m)
Last frame :
WB7NNF at 2026-09-04 07:53:09 at altitude 5523m (OG: 4235m)

Flighttime : 2h7m37s
Ascent time : 1h34m48s
Descent time : 32m49s
Uptime : -
Killtimer : -

Distance (Straight line distance): 81km

Distance (Route):


Frames : 340


Measurement :

Temperature : -15.7°C
Humidity : 0%
Pressure : 0hPa


Vertical profile (SkewT) :


Elevation profile :



Receiving stations :


Receiver Frames First received Last received
WB7NNF 340 2026-09-04 05:45:32 2026-09-04 07:53:09

Share per receiver :



All frames :


Receiver Date Latitude Longitude Direction Speed Altitude Climb Temperature Humidity Pressure Voltage Killtimer Uptime BKT XDATA
WB7NNF2026-09-04 07:53:0948.41469-117.53757360°42km/h5523m-8.2m/s-15.7°C0%0hPa0V00:00:0000:00:0000:00:00
WB7NNF2026-09-04 07:52:4148.41179-117.5376144km/h5748m-9.0m/s-17.6°C0%0hPa0V00:00:0000:00:0000:00:00
WB7NNF2026-09-04 07:52:1948.40894-117.5383711°58km/h5931m-9.0m/s-19.1°C0%0hPa0V00:00:0000:00:0000:00:00
WB7NNF2026-09-04 07:51:5848.40557-117.5396116°68km/h6119m-8.8m/s-20.9°C0%0hPa0V00:00:0000:00:0000:00:00
WB7NNF2026-09-04 07:51:3648.40164-117.5410710°84km/h6309m-8.4m/s-22.1°C0%0hPa0V00:00:0000:00:0000:00:00
WB7NNF2026-09-04 07:51:1448.39730-117.54121359°77km/h6507m-9.3m/s-22.7°C0%0hPa0V00:00:0000:00:0000:00:00
WB7NNF2026-09-04 07:50:5348.39361-117.54084354°69km/h6696m-7.6m/s-24.0°C0%0hPa0V00:00:0000:00:0000:00:00
WB7NNF2026-09-04 07:50:3348.39017-117.54025354°71km/h6881m-8.7m/s-25.6°C0%0hPa0V00:00:0000:00:0000:00:00
WB7NNF2026-09-04 07:49:4248.38056-117.53882354°78km/h7350m-9.4m/s-29.2°C0%0hPa0V00:00:0000:00:0000:00:00
WB7NNF2026-09-04 07:49:2148.37646-117.53779353°86km/h7539m-9.5m/s-30.5°C0%0hPa0V00:00:0000:00:0000:00:00
WB7NNF2026-09-04 07:48:5948.37140-117.53669354°97km/h7744m-8.9m/s-32.1°C0%0hPa0V00:00:0000:00:0000:00:00
WB7NNF2026-09-04 07:48:3748.36592-117.53593358°102km/h7955m-9.9m/s-33.7°C0%0hPa0V00:00:0000:00:0000:00:00
WB7NNF2026-09-04 07:48:1648.36012-117.53533357°108km/h8174m-10.4m/s-35.6°C0%0hPa0V00:00:0000:00:0000:00:00
WB7NNF2026-09-04 07:47:5448.35446-117.53477358°108km/h8396m-9.9m/s-37.6°C0%0hPa0V00:00:0000:00:0000:00:00
WB7NNF2026-09-04 07:47:3348.34876-117.53464360°111km/h8606m-10.6m/s-39.5°C0%0hPa0V00:00:0000:00:0000:00:00
WB7NNF2026-09-04 07:47:1348.34269-117.53455357°113km/h8829m-11.1m/s-41.4°C0%0hPa0V00:00:0000:00:0000:00:00
WB7NNF2026-09-04 07:46:5248.33655-117.53410356°113km/h9044m-10.0m/s-43.3°C0%0hPa0V00:00:0000:00:0000:00:00
WB7NNF2026-09-04 07:46:3148.33087-117.53302354°117km/h9257m-10.4m/s-45.2°C0%0hPa0V00:00:0000:00:0000:00:00
WB7NNF2026-09-04 07:46:1148.32488-117.53185354°111km/h9491m-11.2m/s-47.2°C0%0hPa0V00:00:0000:00:0000:00:00
WB7NNF2026-09-04 07:45:5048.31906-117.53114361°119km/h9718m-11.9m/s-48.9°C0%0hPa0V00:00:0000:00:0000:00:00
WB7NNF2026-09-04 07:45:3048.31252-117.53096130km/h9942m-10.6m/s-50.8°C0%0hPa0V00:00:0000:00:0000:00:00
WB7NNF2026-09-04 07:45:0948.30649-117.53117117km/h10156m-11.0m/s-51.8°C0%0hPa0V00:00:0000:00:0000:00:00
WB7NNF2026-09-04 07:44:4948.30019-117.5320610°119km/h10373m-10.0m/s-50.0°C0%0hPa0V00:00:0000:00:0000:00:00
WB7NNF2026-09-04 07:44:2848.29433-117.5337618°115km/h10590m-12.5m/s-48.3°C0%0hPa0V00:00:0000:00:0000:00:00
WB7NNF2026-09-04 07:44:0848.28949-117.5360018°73km/h10822m-11.5m/s-45.9°C0%0hPa0V00:00:0000:00:0000:00:00
WB7NNF2026-09-04 07:43:4748.28603-117.5371264km/h11060m-11.6m/s-45.8°C0%0hPa0V00:00:0000:00:0000:00:00
WB7NNF2026-09-04 07:43:2748.28271-117.53731360°68km/h11315m-13.5m/s-45.8°C0%0hPa0V00:00:0000:00:0000:00:00
WB7NNF2026-09-04 07:43:0648.27919-117.53742361°71km/h11571m-13.0m/s-45.7°C0%0hPa0V00:00:0000:00:0000:00:00
WB7NNF2026-09-04 07:42:4648.27522-117.5374277km/h11819m-11.2m/s-45.5°C0%0hPa0V00:00:0000:00:0000:00:00
WB7NNF2026-09-04 07:42:2548.27162-117.5376768km/h12073m-13.2m/s-45.4°C0%0hPa0V00:00:0000:00:0000:00:00
WB7NNF2026-09-04 07:42:0548.26820-117.5378362km/h12347m-13.9m/s-45.2°C0%0hPa0V00:00:0000:00:0000:00:00
WB7NNF2026-09-04 07:41:4448.26479-117.5382064km/h12637m-11.9m/s-45.3°C0%0hPa0V00:00:0000:00:0000:00:00
WB7NNF2026-09-04 07:41:2348.26129-117.5387369km/h12888m-11.3m/s-45.9°C0%0hPa0V00:00:0000:00:0000:00:00
WB7NNF2026-09-04 07:41:0348.25792-117.5393062km/h13152m-16.0m/s-46.7°C0%0hPa0V00:00:0000:00:0000:00:00
WB7NNF2026-09-04 07:40:4248.25476-117.5396069km/h13401m-12.3m/s-47.4°C0%0hPa0V00:00:0000:00:0000:00:00
WB7NNF2026-09-04 07:40:2248.25078-117.5407119°80km/h13663m-10.7m/s-48.0°C0%0hPa0V00:00:0000:00:0000:00:00
WB7NNF2026-09-04 07:40:0148.24693-117.5427722°77km/h13898m-12.8m/s-48.5°C0%0hPa0V00:00:0000:00:0000:00:00
WB7NNF2026-09-04 07:39:4148.24260-117.5449722°88km/h14156m-14.3m/s-48.7°C0%0hPa0V00:00:0000:00:0000:00:00
WB7NNF2026-09-04 07:39:2048.23929-117.5473929°60km/h14425m-14.5m/s-49.3°C0%0hPa0V00:00:0000:00:0000:00:00
WB7NNF2026-09-04 07:39:0048.23689-117.5496728°46km/h14681m-12.1m/s-49.6°C0%0hPa0V00:00:0000:00:0000:00:00
WB7NNF2026-09-04 07:38:3948.23490-117.5518739°44km/h14968m-13.8m/s-49.0°C0%0hPa0V00:00:0000:00:0000:00:00
WB7NNF2026-09-04 07:38:1948.23305-117.5534821°31km/h15254m-12.8m/s-49.9°C0%0hPa0V00:00:0000:00:0000:00:00
WB7NNF2026-09-04 07:37:3848.22959-117.5562513°40km/h15768m-11.4m/s-50.3°C0%0hPa0V00:00:0000:00:0000:00:00
WB7NNF2026-09-04 07:37:1748.22704-117.5565357km/h16035m-11.2m/s-49.7°C0%0hPa0V00:00:0000:00:0000:00:00
WB7NNF2026-09-04 07:36:5748.22473-117.5574528°33km/h16274m-11.6m/s-49.0°C0%0hPa0V00:00:0000:00:0000:00:00
WB7NNF2026-09-04 07:36:3648.22332-117.5583919°27km/h16520m-10.9m/s-50.5°C0%0hPa0V00:00:0000:00:0000:00:00
WB7NNF2026-09-04 07:36:1548.22163-117.5586313°38km/h16753m-12.6m/s-50.4°C0%0hPa0V00:00:0000:00:0000:00:00
WB7NNF2026-09-04 07:35:5548.21960-117.5589113°47km/h17012m-12.1m/s-49.6°C0%0hPa0V00:00:0000:00:0000:00:00
WB7NNF2026-09-04 07:35:3448.21714-117.5599619°53km/h17251m-11.6m/s-50.4°C0%0hPa0V00:00:0000:00:0000:00:00
WB7NNF2026-09-04 07:35:1448.21473-117.5611021°42km/h17508m-11.6m/s-51.5°C0%0hPa0V00:00:0000:00:0000:00:00
WB7NNF2026-09-04 07:34:5348.21308-117.5623223°26km/h17724m-11.1m/s-50.3°C0%0hPa0V00:00:0000:00:0000:00:00
WB7NNF2026-09-04 07:34:3348.21203-117.56275357°20km/h17986m-12.2m/s-50.7°C0%0hPa0V00:00:0000:00:0000:00:00
WB7NNF2026-09-04 07:34:1248.21080-117.5625825°29km/h18276m-16.6m/s-51.5°C0%0hPa0V00:00:0000:00:0000:00:00
WB7NNF2026-09-04 07:33:5248.20913-117.5636637°37km/h18546m-15.3m/s-51.1°C0%0hPa0V00:00:0000:00:0000:00:00
WB7NNF2026-09-04 07:33:3148.20797-117.5651639°26km/h18857m-15.2m/s-51.1°C0%0hPa0V00:00:0000:00:0000:00:00
WB7NNF2026-09-04 07:33:1148.20665-117.56576358°27km/h19196m-18.2m/s-50.4°C0%0hPa0V00:00:0000:00:0000:00:00
WB7NNF2026-09-04 07:32:4648.20432-117.5656742km/h19482m-9.3m/s-52.7°C0%0hPa0V00:00:0000:00:0000:00:00
WB7NNF2026-09-04 07:32:2448.20221-117.5665531°31km/h19706m-10.1m/s-52.6°C0%0hPa0V00:00:0000:00:0000:00:00
WB7NNF2026-09-04 07:31:2748.20110-117.56985173°11km/h20269m-13.8m/s-53.8°C0%0hPa0V00:00:0000:00:0000:00:00
WB7NNF2026-09-04 07:31:0648.20180-117.56936258°15km/h20572m-16.9m/s-54.5°C0%0hPa0V00:00:0000:00:0000:00:00
WB7NNF2026-09-04 07:30:4448.20184-117.56808306°20km/h20957m-16.2m/s-54.6°C0%0hPa0V00:00:0000:00:0000:00:00
WB7NNF2026-09-04 07:30:2248.20090-117.56696333°29km/h21327m-17.5m/s-53.8°C0%0hPa0V00:00:0000:00:0000:00:00
WB7NNF2026-09-04 07:30:0148.19992-117.5668113°16km/h21675m-18.7m/s-53.9°C0%0hPa0V00:00:0000:00:0000:00:00
WB7NNF2026-09-04 07:29:4048.19995-117.56696155°15km/h22027m-19.0m/s-53.1°C0%0hPa0V00:00:0000:00:0000:00:00
WB7NNF2026-09-04 07:29:1748.20039-117.56647292°15km/h22448m-17.0m/s-52.9°C0%0hPa0V00:00:0000:00:0000:00:00
WB7NNF2026-09-04 07:28:5548.20018-117.56509309°20km/h22850m-24.9m/s-54.0°C0%0hPa0V00:00:0000:00:0000:00:00
WB7NNF2026-09-04 07:28:3548.19957-117.5646227°13km/h23248m-17.5m/s-53.2°C0%0hPa0V00:00:0000:00:0000:00:00
WB7NNF2026-09-04 07:28:1448.19915-117.56500126°13km/h23684m-24.2m/s-51.2°C0%0hPa0V00:00:0000:00:0000:00:00
WB7NNF2026-09-04 07:27:5348.19979-117.56420279°15km/h24126m-21.6m/s-52.3°C0%0hPa0V00:00:0000:00:0000:00:00
WB7NNF2026-09-04 07:27:3348.20005-117.56279280°20km/h24590m-25.4m/s-51.8°C0%0hPa0V00:00:0000:00:0000:00:00
WB7NNF2026-09-04 07:27:1248.19956-117.56205240°9km/h25063m-19.5m/s-52.0°C0%0hPa0V00:00:0000:00:0000:00:00
WB7NNF2026-09-04 07:26:5248.19967-117.56194268°5km/h25405m-14.1m/s-51.4°C0%0hPa0V00:00:0000:00:0000:00:00
WB7NNF2026-09-04 07:26:3148.20005-117.56205247°9km/h25704m-15.6m/s-49.7°C0%0hPa0V00:00:0000:00:0000:00:00
WB7NNF2026-09-04 07:26:1148.19978-117.56078337°16km/h26161m-22.7m/s-49.5°C0%0hPa0V00:00:0000:00:0000:00:00
WB7NNF2026-09-04 07:25:5048.19929-117.56103172°7km/h26689m-26.0m/s-49.6°C0%0hPa0V00:00:0000:00:0000:00:00
WB7NNF2026-09-04 07:25:3048.20023-117.56027220°33km/h27265m-18.3m/s-50.4°C0%0hPa0V00:00:0000:00:0000:00:00
WB7NNF2026-09-04 07:25:0948.20135-117.55890230°24km/h27572m-15.2m/s-51.2°C0%0hPa0V00:00:0000:00:0000:00:00
WB7NNF2026-09-04 07:24:4948.20140-117.55753274°11km/h27925m-16.1m/s-51.0°C0%0hPa0V00:00:0000:00:0000:00:00
WB7NNF2026-09-04 07:24:2948.20125-117.5570716km/h28231m-16.1m/s-49.7°C0%0hPa0V00:00:0000:00:0000:00:00
WB7NNF2026-09-04 07:24:0848.20052-117.55765321°13km/h28581m-16.3m/s-47.9°C0%0hPa0V00:00:0000:00:0000:00:00
WB7NNF2026-09-04 07:23:4748.20048-117.55720278°33km/h28936m-17.5m/s-47.4°C0%0hPa0V00:00:0000:00:0000:00:00
WB7NNF2026-09-04 07:23:2748.20042-117.5566738°2km/h29255m-18.9m/s-47.2°C0%0hPa0V00:00:0000:00:0000:00:00
WB7NNF2026-09-04 07:23:0648.20060-117.55614296°16km/h29679m-19.5m/s-46.7°C0%0hPa0V00:00:0000:00:0000:00:00
WB7NNF2026-09-04 07:22:4448.20073-117.55543229°22km/h30078m-18.6m/s-46.0°C0%0hPa0V00:00:0000:00:0000:00:00
WB7NNF2026-09-04 07:22:2348.20138-117.55434213°26km/h30778m-30.5m/s-45.8°C0%0hPa0V00:00:0000:00:0000:00:00
WB7NNF2026-09-04 07:21:4248.20173-117.5528233°13km/h32058m-37.6m/s-41.4°C0%0hPa0V00:00:0000:00:0000:00:00
WB7NNF2026-09-04 07:21:2148.20110-117.5539731°18km/h32706m-27.5m/s-38.1°C0%0hPa0V00:00:0000:00:0000:00:00
WB7NNF2026-09-04 07:21:0148.20050-117.5547898°15km/h33429m-33.5m/s-37.7°C0%0hPa0V00:00:0000:00:0000:00:00
WB7NNF2026-09-04 07:20:4048.20034-117.55448244°9km/h34121m-35.1m/s-37.9°C0%0hPa0V00:00:0000:00:0000:00:00
WB7NNF2026-09-04 07:20:2048.20037-117.55424333°5km/h34430m5.6m/s-37.7°C0%0hPa0V00:00:0000:00:0000:00:00
WB7NNF2026-09-04 07:19:5948.20023-117.55420319°35km/h34317m3.0m/s-38.4°C0%0hPa0V00:00:0000:00:0000:00:00
WB7NNF2026-09-04 07:19:3948.19977-117.55361204°7km/h34203m3.3m/s-38.3°C0%0hPa0V00:00:0000:00:0000:00:00
WB7NNF2026-09-04 07:19:1848.19986-117.55270216°27km/h34075m1.9m/s-38.5°C0%0hPa0V00:00:0000:00:0000:00:00
WB7NNF2026-09-04 07:18:5848.19993-117.55202331°20km/h33947m7.5m/s-38.6°C0%0hPa0V00:00:0000:00:0000:00:00
WB7NNF2026-09-04 07:18:3748.20033-117.55127292°29km/h33829m5.1m/s-38.7°C0%0hPa0V00:00:0000:00:0000:00:00
WB7NNF2026-09-04 07:18:1748.20078-117.55066339°11km/h33702m6.0m/s-38.4°C0%0hPa0V00:00:0000:00:0000:00:00
WB7NNF2026-09-04 07:17:5648.20079-117.5510670°11km/h33581m4.5m/s-38.1°C0%0hPa0V00:00:0000:00:0000:00:00
WB7NNF2026-09-04 07:17:3648.20057-117.55248110°40km/h33445m1.1m/s-38.2°C0%0hPa0V00:00:0000:00:0000:00:00
WB7NNF2026-09-04 07:17:1548.19986-117.55300336°13km/h33316m5.9m/s-38.8°C0%0hPa0V00:00:0000:00:0000:00:00
WB7NNF2026-09-04 07:16:5548.19895-117.55270332°18km/h33184m6.4m/s-38.4°C0%0hPa0V00:00:0000:00:0000:00:00
WB7NNF2026-09-04 07:16:3448.19832-117.55296164°18km/h33053m11.4m/s-38.2°C0%0hPa0V00:00:0000:00:0000:00:00
WB7NNF2026-09-04 07:16:1348.19794-117.5537278°11km/h32925m5.7m/s-37.9°C0%0hPa0V00:00:0000:00:0000:00:00
WB7NNF2026-09-04 07:15:5348.19720-117.5547629°42km/h32796m-2.1m/s-38.2°C0%0hPa0V00:00:0000:00:0000:00:00
WB7NNF2026-09-04 07:15:3248.19664-117.55610124°26km/h32668m6.5m/s-38.7°C0%0hPa0V00:00:0000:00:0000:00:00
WB7NNF2026-09-04 07:15:1248.19583-117.5576675°38km/h32546m2.8m/s-39.5°C0%0hPa0V00:00:0000:00:0000:00:00
WB7NNF2026-09-04 07:14:5148.19518-117.55833345°57km/h32428m1.2m/s-40.0°C0%0hPa0V00:00:0000:00:0000:00:00
WB7NNF2026-09-04 07:14:3148.19510-117.55903158°35km/h32301m1.6m/s-41.1°C0%0hPa0V00:00:0000:00:0000:00:00
WB7NNF2026-09-04 07:14:1048.19505-117.55920340°16km/h32187m9.8m/s-41.8°C0%0hPa0V00:00:0000:00:0000:00:00
WB7NNF2026-09-04 07:13:5048.19448-117.558920km/h32058m8.5m/s-42.8°C0%0hPa0V00:00:0000:00:0000:00:00
WB7NNF2026-09-04 07:13:2948.19435-117.55797227°38km/h31937m3.8m/s-43.5°C0%0hPa0V00:00:0000:00:0000:00:00
WB7NNF2026-09-04 07:13:0948.19458-117.55703306°35km/h31812m3.8m/s-43.5°C0%0hPa0V00:00:0000:00:0000:00:00
WB7NNF2026-09-04 07:12:4848.19504-117.55680274°13km/h31697m4.9m/s-43.4°C0%0hPa0V00:00:0000:00:0000:00:00
WB7NNF2026-09-04 07:12:2848.19501-117.55679285°40km/h31575m7.4m/s-43.7°C0%0hPa0V00:00:0000:00:0000:00:00
WB7NNF2026-09-04 07:12:0748.19461-117.55653205°44km/h31460m7.9m/s-44.4°C0%0hPa0V00:00:0000:00:0000:00:00
WB7NNF2026-09-04 07:11:4748.19470-117.55580295°57km/h31337m10.9m/s-44.4°C0%0hPa0V00:00:0000:00:0000:00:00
WB7NNF2026-09-04 07:11:2648.19463-117.55478340°31km/h31218m-1.1m/s-45.2°C0%0hPa0V00:00:0000:00:0000:00:00
WB7NNF2026-09-04 07:11:0448.19516-117.55373231°55km/h31089m0.7m/s-45.4°C0%0hPa0V00:00:0000:00:0000:00:00
WB7NNF2026-09-04 07:10:4148.19571-117.55259242°37km/h30945m6.6m/s-45.8°C0%0hPa0V00:00:0000:00:0000:00:00
WB7NNF2026-09-04 07:10:1948.19695-117.55132138°58km/h30811m2.9m/s-46.3°C0%0hPa0V00:00:0000:00:0000:00:00
WB7NNF2026-09-04 07:09:5748.19785-117.55022296°46km/h30683m0.8m/s-45.9°C0%0hPa0V00:00:0000:00:0000:00:00
WB7NNF2026-09-04 07:09:3648.19837-117.5502245°11km/h30550m5.9m/s-46.2°C0%0hPa0V00:00:0000:00:0000:00:00
WB7NNF2026-09-04 07:09:1548.19877-117.54976253°27km/h30429m2.1m/s-46.1°C0%0hPa0V00:00:0000:00:0000:00:00
WB7NNF2026-09-04 07:08:5348.19929-117.54926186°20km/h30298m7.7m/s-46.3°C0%0hPa0V00:00:0000:00:0000:00:00
WB7NNF2026-09-04 07:08:3148.20037-117.54845160°18km/h30155m3.6m/s-46.3°C0%0hPa0V00:00:0000:00:0000:00:00
WB7NNF2026-09-04 07:08:1048.20112-117.54785301°15km/h30029m-2.3m/s-46.7°C0%0hPa0V00:00:0000:00:0000:00:00
WB7NNF2026-09-04 07:07:4848.20145-117.54707292°37km/h29877m-0.2m/s-46.9°C0%0hPa0V00:00:0000:00:0000:00:00
WB7NNF2026-09-04 07:07:2548.20165-117.54628193°31km/h29738m0.3m/s-46.9°C0%0hPa0V00:00:0000:00:0000:00:00
WB7NNF2026-09-04 07:07:0548.20204-117.54502249°35km/h29610m-0.5m/s-47.6°C0%0hPa0V00:00:0000:00:0000:00:00
WB7NNF2026-09-04 07:06:4448.20227-117.54436187°51km/h29491m15.8m/s-47.5°C0%0hPa0V00:00:0000:00:0000:00:00
WB7NNF2026-09-04 07:06:2448.20284-117.5443257°16km/h29369m3.9m/s-47.4°C0%0hPa0V00:00:0000:00:0000:00:00
WB7NNF2026-09-04 07:06:0348.20318-117.54424341°37km/h29253m0.2m/s-47.5°C0%0hPa0V00:00:0000:00:0000:00:00
WB7NNF2026-09-04 07:05:4348.20338-117.5438149km/h29133m4.6m/s-47.6°C0%0hPa0V00:00:0000:00:0000:00:00
WB7NNF2026-09-04 07:05:2248.20358-117.54336306°27km/h29027m5.7m/s-47.9°C0%0hPa0V00:00:0000:00:0000:00:00
WB7NNF2026-09-04 07:04:4148.20421-117.54223357°40km/h28797m9.1m/s-48.2°C0%0hPa0V00:00:0000:00:0000:00:00
WB7NNF2026-09-04 07:04:2048.20423-117.5425343°55km/h28687m7.4m/s-48.6°C0%0hPa0V00:00:0000:00:0000:00:00
WB7NNF2026-09-04 07:04:0048.20384-117.54317223°13km/h28568m11.2m/s-48.3°C0%0hPa0V00:00:0000:00:0000:00:00
WB7NNF2026-09-04 07:03:3848.20306-117.5433690°13km/h28435m6.6m/s-48.4°C0%0hPa0V00:00:0000:00:0000:00:00
WB7NNF2026-09-04 07:03:1748.20199-117.54379253°29km/h28310m1.8m/s-49.1°C0%0hPa0V00:00:0000:00:0000:00:00
WB7NNF2026-09-04 07:02:5748.20104-117.54377241°44km/h28175m6.1m/s-49.8°C0%0hPa0V00:00:0000:00:0000:00:00
WB7NNF2026-09-04 07:02:3648.20043-117.54308239°29km/h28048m0.6m/s-49.8°C0%0hPa0V00:00:0000:00:0000:00:00
WB7NNF2026-09-04 07:02:1548.20053-117.54230244°55km/h27922m8.9m/s-49.9°C0%0hPa0V00:00:0000:00:0000:00:00
WB7NNF2026-09-04 07:01:5548.20071-117.54097246°51km/h27792m1.0m/s-50.3°C0%0hPa0V00:00:0000:00:0000:00:00
WB7NNF2026-09-04 07:01:3448.20051-117.53958243°71km/h27668m3.6m/s-50.4°C0%0hPa0V00:00:0000:00:0000:00:00
WB7NNF2026-09-04 07:01:1448.20057-117.53743251°62km/h27545m-0.8m/s-50.1°C0%0hPa0V00:00:0000:00:0000:00:00
WB7NNF2026-09-04 07:00:5348.20097-117.53576296°51km/h27430m4.4m/s-49.9°C0%0hPa0V00:00:0000:00:0000:00:00
WB7NNF2026-09-04 07:00:3348.20179-117.53465292°38km/h27310m8.2m/s-49.8°C0%0hPa0V00:00:0000:00:0000:00:00
WB7NNF2026-09-04 07:00:1248.20286-117.53350257°47km/h27199m3.6m/s-49.9°C0%0hPa0V00:00:0000:00:0000:00:00
WB7NNF2026-09-04 06:59:5048.20400-117.53266256°22km/h27084m0.4m/s-49.8°C0%0hPa0V00:00:0000:00:0000:00:00
WB7NNF2026-09-04 06:59:2948.20477-117.53215312°22km/h26972m-1.7m/s-49.9°C0%0hPa0V00:00:0000:00:0000:00:00
WB7NNF2026-09-04 06:59:0948.20531-117.53175116°15km/h26857m3.3m/s-50.2°C0%0hPa0V00:00:0000:00:0000:00:00
WB7NNF2026-09-04 06:58:4848.20577-117.5317591°15km/h26742m3.8m/s-50.4°C0%0hPa0V00:00:0000:00:0000:00:00
WB7NNF2026-09-04 06:58:2848.20570-117.53221168°16km/h26622m10.0m/s-50.6°C0%0hPa0V00:00:0000:00:0000:00:00
WB7NNF2026-09-04 06:58:0748.20520-117.53212350°33km/h26508m2.2m/s-50.5°C0%0hPa0V00:00:0000:00:0000:00:00
WB7NNF2026-09-04 06:57:4748.20390-117.53189350°44km/h26389m4.9m/s-50.2°C0%0hPa0V00:00:0000:00:0000:00:00
WB7NNF2026-09-04 06:57:2648.20280-117.5311135km/h26272m3.8m/s-49.6°C0%0hPa0V00:00:0000:00:0000:00:00
WB7NNF2026-09-04 06:57:0448.20220-117.52957271°53km/h26135m-0.4m/s-49.7°C0%0hPa0V00:00:0000:00:0000:00:00
WB7NNF2026-09-04 06:56:4348.20197-117.52726280°40km/h26017m4.2m/s-49.8°C0%0hPa0V00:00:0000:00:0000:00:00
WB7NNF2026-09-04 06:56:2248.20231-117.52520214°35km/h25880m5.2m/s-49.5°C0%0hPa0V00:00:0000:00:0000:00:00
WB7NNF2026-09-04 06:56:0048.20271-117.52390204°53km/h25765m9.6m/s-49.5°C0%0hPa0V00:00:0000:00:0000:00:00
WB7NNF2026-09-04 06:55:4048.20334-117.52290214°57km/h25644m2.8m/s-50.0°C0%0hPa0V00:00:0000:00:0000:00:00
WB7NNF2026-09-04 06:55:1948.20386-117.52299254°38km/h25524m2.8m/s-50.4°C0%0hPa0V00:00:0000:00:0000:00:00
WB7NNF2026-09-04 06:54:5748.20397-117.5230858°15km/h25405m6.4m/s-51.1°C0%0hPa0V00:00:0000:00:0000:00:00
WB7NNF2026-09-04 06:54:3448.20423-117.5229033°46km/h25260m7.7m/s-51.3°C0%0hPa0V00:00:0000:00:0000:00:00
WB7NNF2026-09-04 06:54:1248.20412-117.52360193°22km/h25135m11.1m/s-51.4°C0%0hPa0V00:00:0000:00:0000:00:00
WB7NNF2026-09-04 06:53:5148.20421-117.52325211°33km/h25021m10.2m/s-52.0°C0%0hPa0V00:00:0000:00:0000:00:00
WB7NNF2026-09-04 06:53:3148.20404-117.52277215°35km/h24908m8.9m/s-52.1°C0%0hPa0V00:00:0000:00:0000:00:00
WB7NNF2026-09-04 06:53:1048.20328-117.52190294°46km/h24788m4.3m/s-52.1°C0%0hPa0V00:00:0000:00:0000:00:00
WB7NNF2026-09-04 06:52:4848.20283-117.52091234°29km/h24658m10.2m/s-52.0°C0%0hPa0V00:00:0000:00:0000:00:00
WB7NNF2026-09-04 06:52:2648.20322-117.51938305°37km/h24538m1.5m/s-52.1°C0%0hPa0V00:00:0000:00:0000:00:00
WB7NNF2026-09-04 06:51:3248.20499-117.51693253°38km/h24244m8.7m/s-52.2°C0%0hPa0V00:00:0000:00:0000:00:00
WB7NNF2026-09-04 06:51:0148.20506-117.51457287°11km/h24064m9.2m/s-51.6°C0%0hPa0V00:00:0000:00:0000:00:00
WB7NNF2026-09-04 06:50:3948.20551-117.5136539°26km/h23944m7.5m/s-50.9°C0%0hPa0V00:00:0000:00:0000:00:00
WB7NNF2026-09-04 06:50:1748.20605-117.51293277°29km/h23834m1.8m/s-50.7°C0%0hPa0V00:00:0000:00:0000:00:00
WB7NNF2026-09-04 06:49:5448.20673-117.5133780°16km/h23707m1.2m/s-51.3°C0%0hPa0V00:00:0000:00:0000:00:00
WB7NNF2026-09-04 06:49:1148.20585-117.51465242°35km/h23470m0.4m/s-52.7°C0%0hPa0V00:00:0000:00:0000:00:00
WB7NNF2026-09-04 06:48:5148.20528-117.5142329km/h23353m5.1m/s-52.8°C0%0hPa0V00:00:0000:00:0000:00:00
WB7NNF2026-09-04 06:48:2748.20487-117.51436316°44km/h23225m8.5m/s-54.5°C0%0hPa0V00:00:0000:00:0000:00:00
WB7NNF2026-09-04 06:48:0648.20382-117.51415219°27km/h23093m4.4m/s-54.6°C0%0hPa0V00:00:0000:00:0000:00:00
WB7NNF2026-09-04 06:47:4448.20328-117.51328256°31km/h22981m0.4m/s-54.3°C0%0hPa0V00:00:0000:00:0000:00:00
WB7NNF2026-09-04 06:47:2348.20295-117.51199284°35km/h22871m2.0m/s-53.9°C0%0hPa0V00:00:0000:00:0000:00:00
WB7NNF2026-09-04 06:47:0348.20291-117.5105425°13km/h22762m9.4m/s-53.8°C0%0hPa0V00:00:0000:00:0000:00:00
WB7NNF2026-09-04 06:46:4048.20323-117.50928287°11km/h22653m5.0m/s-54.6°C0%0hPa0V00:00:0000:00:0000:00:00
WB7NNF2026-09-04 06:46:1648.20291-117.50773196°33km/h22520m3.6m/s-54.1°C0%0hPa0V00:00:0000:00:0000:00:00
WB7NNF2026-09-04 06:45:5448.20296-117.5063840°22km/h22398m3.8m/s-53.8°C0%0hPa0V00:00:0000:00:0000:00:00
WB7NNF2026-09-04 06:45:3348.20356-117.50605196°24km/h22283m7.4m/s-53.9°C0%0hPa0V00:00:0000:00:0000:00:00
WB7NNF2026-09-04 06:45:1248.20453-117.50569219°26km/h22172m7.3m/s-53.1°C0%0hPa0V00:00:0000:00:0000:00:00
WB7NNF2026-09-04 06:44:4748.20542-117.50547276°24km/h22036m2.5m/s-52.6°C0%0hPa0V00:00:0000:00:0000:00:00
WB7NNF2026-09-04 06:44:2648.20586-117.5058775°35km/h21918m0.7m/s-53.0°C0%0hPa0V00:00:0000:00:0000:00:00
WB7NNF2026-09-04 06:44:0448.20546-117.50603282°37km/h21808m7.1m/s-52.9°C0%0hPa0V00:00:0000:00:0000:00:00
WB7NNF2026-09-04 06:43:4248.20512-117.5055131°9km/h21683m3.5m/s-52.7°C0%0hPa0V00:00:0000:00:0000:00:00
WB7NNF2026-09-04 06:43:2248.20435-117.5056031km/h21581m6.5m/s-53.0°C0%0hPa0V00:00:0000:00:0000:00:00
WB7NNF2026-09-04 06:43:0048.20329-117.50568276°24km/h21469m4.4m/s-53.0°C0%0hPa0V00:00:0000:00:0000:00:00
WB7NNF2026-09-04 06:42:3448.20174-117.50503295°53km/h21341m5.3m/s-53.2°C0%0hPa0V00:00:0000:00:0000:00:00
WB7NNF2026-09-04 06:42:1048.20045-117.50373286°29km/h21217m7.5m/s-53.1°C0%0hPa0V00:00:0000:00:0000:00:00
WB7NNF2026-09-04 06:41:4548.19949-117.50222328°46km/h21086m7.4m/s-53.0°C0%0hPa0V00:00:0000:00:0000:00:00
WB7NNF2026-09-04 06:41:2148.19917-117.50150228°27km/h20973m0.9m/s-54.5°C0%0hPa0V00:00:0000:00:0000:00:00
WB7NNF2026-09-04 06:40:5548.19956-117.50001311°27km/h20839m7.1m/s-53.9°C0%0hPa0V00:00:0000:00:0000:00:00
WB7NNF2026-09-04 06:40:3548.19980-117.49940269°31km/h20732m0.9m/s-54.0°C0%0hPa0V00:00:0000:00:0000:00:00
WB7NNF2026-09-04 06:40:1048.20068-117.49902237°33km/h20623m-1.2m/s-54.0°C0%0hPa0V00:00:0000:00:0000:00:00
WB7NNF2026-09-04 06:39:4848.20153-117.49843261°5km/h20513m3.4m/s-54.1°C0%0hPa0V00:00:0000:00:0000:00:00
WB7NNF2026-09-04 06:39:0348.20351-117.49838192°18km/h20283m7.0m/s-53.2°C0%0hPa0V00:00:0000:00:0000:00:00
WB7NNF2026-09-04 06:38:4148.20430-117.49901182°20km/h20166m9.1m/s-52.7°C0%0hPa0V00:00:0000:00:0000:00:00
WB7NNF2026-09-04 06:38:2048.20456-117.50030173°27km/h20033m3.9m/s-52.5°C0%0hPa0V00:00:0000:00:0000:00:00
WB7NNF2026-09-04 06:37:5848.20389-117.5019548°26km/h19905m1.1m/s-52.3°C0%0hPa0V00:00:0000:00:0000:00:00
WB7NNF2026-09-04 06:37:3748.20293-117.5030734°9km/h19786m1.3m/s-52.0°C0%0hPa0V00:00:0000:00:0000:00:00
WB7NNF2026-09-04 06:37:1348.20099-117.5043035°18km/h19654m5.0m/s-52.4°C0%0hPa0V00:00:0000:00:0000:00:00
WB7NNF2026-09-04 06:36:5248.19858-117.5049775km/h19551m6.7m/s-52.6°C0%0hPa0V00:00:0000:00:0000:00:00
WB7NNF2026-09-04 06:36:3248.19606-117.5051412°58km/h19448m1.3m/s-52.1°C0%0hPa0V00:00:0000:00:0000:00:00
WB7NNF2026-09-04 06:36:1048.19397-117.50492304°26km/h19341m2.3m/s-51.2°C0%0hPa0V00:00:0000:00:0000:00:00
WB7NNF2026-09-04 06:35:4948.19192-117.5049346km/h19223m5.2m/s-50.2°C0%0hPa0V00:00:0000:00:0000:00:00
WB7NNF2026-09-04 06:35:2848.19035-117.5051716°26km/h19108m5.1m/s-50.6°C0%0hPa0V00:00:0000:00:0000:00:00
WB7NNF2026-09-04 06:35:0648.18859-117.5057787°15km/h18991m8.0m/s-52.4°C0%0hPa0V00:00:0000:00:0000:00:00
WB7NNF2026-09-04 06:34:4548.18726-117.5068139°24km/h18889m7.1m/s-51.9°C0%0hPa0V00:00:0000:00:0000:00:00
WB7NNF2026-09-04 06:34:2548.18564-117.5083613°49km/h18779m3.3m/s-52.6°C0%0hPa0V00:00:0000:00:0000:00:00
WB7NNF2026-09-04 06:34:0248.18379-117.5102833°38km/h18677m6.5m/s-53.3°C0%0hPa0V00:00:0000:00:0000:00:00
WB7NNF2026-09-04 06:33:4248.18184-117.51131355°35km/h18577m3.6m/s-53.3°C0%0hPa0V00:00:0000:00:0000:00:00
WB7NNF2026-09-04 06:33:1948.17992-117.51200345°47km/h18472m7.0m/s-52.7°C0%0hPa0V00:00:0000:00:0000:00:00
WB7NNF2026-09-04 06:32:5748.17789-117.51236349°9km/h18372m0.5m/s-52.1°C0%0hPa0V00:00:0000:00:0000:00:00
WB7NNF2026-09-04 06:32:1648.17465-117.51177353°22km/h18179m5.0m/s-51.2°C0%0hPa0V00:00:0000:00:0000:00:00
WB7NNF2026-09-04 06:31:5648.17351-117.5110211km/h18078m5.4m/s-50.6°C0%0hPa0V00:00:0000:00:0000:00:00
WB7NNF2026-09-04 06:31:3548.17232-117.51092335°37km/h17987m3.4m/s-50.5°C0%0hPa0V00:00:0000:00:0000:00:00
WB7NNF2026-09-04 06:31:1348.17103-117.51121347°38km/h17888m1.0m/s-50.3°C0%0hPa0V00:00:0000:00:0000:00:00
WB7NNF2026-09-04 06:30:5248.16940-117.5116614°29km/h17790m5.8m/s-50.2°C0%0hPa0V00:00:0000:00:0000:00:00
WB7NNF2026-09-04 06:30:3148.16799-117.5122740km/h17690m5.0m/s-50.7°C0%0hPa0V00:00:0000:00:0000:00:00
WB7NNF2026-09-04 06:30:1148.16637-117.5136237°42km/h17584m6.1m/s-50.7°C0%0hPa0V00:00:0000:00:0000:00:00
WB7NNF2026-09-04 06:29:5048.16438-117.5151555°44km/h17479m4.4m/s-50.6°C0%0hPa0V00:00:0000:00:0000:00:00
WB7NNF2026-09-04 06:29:2848.16240-117.51631356°49km/h17376m2.1m/s-50.4°C0%0hPa0V00:00:0000:00:0000:00:00
WB7NNF2026-09-04 06:29:0448.16026-117.51731354°64km/h17260m3.1m/s-50.8°C0%0hPa0V00:00:0000:00:0000:00:00
WB7NNF2026-09-04 06:28:4448.15834-117.5179538km/h17168m4.4m/s-50.5°C0%0hPa0V00:00:0000:00:0000:00:00
WB7NNF2026-09-04 06:28:2148.15667-117.51844359°31km/h17059m4.8m/s-49.7°C0%0hPa0V00:00:0000:00:0000:00:00
WB7NNF2026-09-04 06:27:5948.15512-117.51871326°37km/h16970m2.5m/s-49.1°C0%0hPa0V00:00:0000:00:0000:00:00
WB7NNF2026-09-04 06:27:3648.15366-117.51869327°44km/h16875m3.5m/s-48.7°C0%0hPa0V00:00:0000:00:0000:00:00
WB7NNF2026-09-04 06:27:1648.15201-117.5187132°29km/h16787m3.1m/s-48.9°C0%0hPa0V00:00:0000:00:0000:00:00
WB7NNF2026-09-04 06:26:5548.15030-117.51924357°46km/h16712m5.5m/s-49.8°C0%0hPa0V00:00:0000:00:0000:00:00
WB7NNF2026-09-04 06:26:3448.14858-117.52008347°37km/h16632m2.8m/s-50.1°C0%0hPa0V00:00:0000:00:0000:00:00
WB7NNF2026-09-04 06:26:1248.14680-117.52029337°46km/h16532m3.5m/s-49.8°C0%0hPa0V00:00:0000:00:0000:00:00
WB7NNF2026-09-04 06:25:5048.14551-117.52064337°24km/h16435m3.7m/s-49.7°C0%0hPa0V00:00:0000:00:0000:00:00
WB7NNF2026-09-04 06:25:2748.14418-117.52158342°38km/h16329m3.7m/s-49.8°C0%0hPa0V00:00:0000:00:0000:00:00
WB7NNF2026-09-04 06:25:0348.14245-117.52250354°40km/h16216m1.5m/s-49.7°C0%0hPa0V00:00:0000:00:0000:00:00
WB7NNF2026-09-04 06:24:3948.13979-117.52306338°53km/h16093m3.5m/s-49.6°C0%0hPa0V00:00:0000:00:0000:00:00
WB7NNF2026-09-04 06:24:1348.13631-117.5230226°35km/h15971m1.7m/s-49.5°C0%0hPa0V00:00:0000:00:0000:00:00
WB7NNF2026-09-04 06:23:5248.13394-117.52311344°46km/h15879m4.4m/s-50.1°C0%0hPa0V00:00:0000:00:0000:00:00
WB7NNF2026-09-04 06:23:3248.13184-117.52361343°31km/h15779m1.2m/s-50.6°C0%0hPa0V00:00:0000:00:0000:00:00
WB7NNF2026-09-04 06:23:1148.13000-117.5246623°40km/h15682m5.5m/s-50.3°C0%0hPa0V00:00:0000:00:0000:00:00
WB7NNF2026-09-04 06:22:5048.12839-117.5258151°47km/h15595m5.4m/s-50.1°C0%0hPa0V00:00:0000:00:0000:00:00
WB7NNF2026-09-04 06:22:2748.12682-117.5273438°31km/h15494m5.4m/s-49.8°C0%0hPa0V00:00:0000:00:0000:00:00
WB7NNF2026-09-04 06:21:4548.12295-117.5315118°37km/h15308m4.8m/s-49.8°C0%0hPa0V00:00:0000:00:0000:00:00
WB7NNF2026-09-04 06:21:2348.12076-117.5327226°33km/h15218m4.0m/s-50.3°C0%0hPa0V00:00:0000:00:0000:00:00
WB7NNF2026-09-04 06:21:0248.11850-117.5339127km/h15127m3.2m/s-49.6°C0%0hPa0V00:00:0000:00:0000:00:00
WB7NNF2026-09-04 06:20:4148.11634-117.5355020°40km/h15033m4.2m/s-49.6°C0%0hPa0V00:00:0000:00:0000:00:00
WB7NNF2026-09-04 06:20:1948.11383-117.5379945°42km/h14942m6.1m/s-49.6°C0%0hPa0V00:00:0000:00:0000:00:00
WB7NNF2026-09-04 06:19:5948.11173-117.5406043°49km/h14850m3.7m/s-49.1°C0%0hPa0V00:00:0000:00:0000:00:00
WB7NNF2026-09-04 06:19:3748.10985-117.5436342°71km/h14752m6.8m/s-49.0°C0%0hPa0V00:00:0000:00:0000:00:00
WB7NNF2026-09-04 06:19:1648.10764-117.5465848°35km/h14655m3.0m/s-49.5°C0%0hPa0V00:00:0000:00:0000:00:00
WB7NNF2026-09-04 06:18:5548.10471-117.5496743°55km/h14555m2.3m/s-50.0°C0%0hPa0V00:00:0000:00:0000:00:00
WB7NNF2026-09-04 06:18:3348.10130-117.5531053°69km/h14458m4.5m/s-49.8°C0%0hPa0V00:00:0000:00:0000:00:00
WB7NNF2026-09-04 06:18:1248.09800-117.5564327°80km/h14373m4.0m/s-49.9°C0%0hPa0V00:00:0000:00:0000:00:00
WB7NNF2026-09-04 06:17:5248.09378-117.5601921°89km/h14287m5.5m/s-50.0°C0%0hPa0V00:00:0000:00:0000:00:00
WB7NNF2026-09-04 06:17:3148.08933-117.5632816°99km/h14207m3.9m/s-49.7°C0%0hPa0V00:00:0000:00:0000:00:00
WB7NNF2026-09-04 06:17:1148.08440-117.5664021°100km/h14123m4.3m/s-49.0°C0%0hPa0V00:00:0000:00:0000:00:00
WB7NNF2026-09-04 06:16:5048.07981-117.5691732°95km/h14043m3.8m/s-48.9°C0%0hPa0V00:00:0000:00:0000:00:00
WB7NNF2026-09-04 06:16:3048.07505-117.5717927°102km/h13946m3.1m/s-48.5°C0%0hPa0V00:00:0000:00:0000:00:00
WB7NNF2026-09-04 06:16:0948.07083-117.5739717°86km/h13858m5.0m/s-48.3°C0%0hPa0V00:00:0000:00:0000:00:00
WB7NNF2026-09-04 06:15:4948.06669-117.5763917°82km/h13766m6.2m/s-48.3°C0%0hPa0V00:00:0000:00:0000:00:00
WB7NNF2026-09-04 06:15:2948.06266-117.5780315°82km/h13679m5.9m/s-48.3°C0%0hPa0V00:00:0000:00:0000:00:00
WB7NNF2026-09-04 06:15:0848.05857-117.5795222°73km/h13593m4.4m/s-48.5°C0%0hPa0V00:00:0000:00:0000:00:00
WB7NNF2026-09-04 06:14:4748.05462-117.5805319°71km/h13502m5.2m/s-48.3°C0%0hPa0V00:00:0000:00:0000:00:00
WB7NNF2026-09-04 06:14:2648.05121-117.5813871km/h13415m3.4m/s-47.7°C0%0hPa0V00:00:0000:00:0000:00:00
WB7NNF2026-09-04 06:14:0648.04785-117.5821564km/h13326m5.3m/s-47.7°C0%0hPa0V00:00:0000:00:0000:00:00
WB7NNF2026-09-04 06:13:4548.04491-117.5826412°58km/h13243m6.5m/s-47.4°C0%0hPa0V00:00:0000:00:0000:00:00
WB7NNF2026-09-04 06:13:2548.04210-117.5828251km/h13153m5.7m/s-47.1°C0%0hPa0V00:00:0000:00:0000:00:00
WB7NNF2026-09-04 06:13:0448.03951-117.5830457km/h13065m5.9m/s-46.5°C0%0hPa0V00:00:0000:00:0000:00:00
WB7NNF2026-09-04 06:12:4448.03667-117.58341361°60km/h12959m5.2m/s-45.8°C0%0hPa0V00:00:0000:00:0000:00:00
WB7NNF2026-09-04 06:12:2348.03385-117.5842855km/h12868m6.4m/s-45.2°C0%0hPa0V00:00:0000:00:0000:00:00
WB7NNF2026-09-04 06:12:0348.03059-117.5856168km/h12773m5.6m/s-45.2°C0%0hPa0V00:00:0000:00:0000:00:00
WB7NNF2026-09-04 06:11:4248.02740-117.5872128°64km/h12685m5.2m/s-44.8°C0%0hPa0V00:00:0000:00:0000:00:00
WB7NNF2026-09-04 06:11:2248.02415-117.5885760km/h12590m4.7m/s-45.2°C0%0hPa0V00:00:0000:00:0000:00:00
WB7NNF2026-09-04 06:11:0148.02088-117.5898964km/h12499m4.9m/s-45.0°C0%0hPa0V00:00:0000:00:0000:00:00
WB7NNF2026-09-04 06:10:4148.01760-117.5912713°62km/h12406m5.8m/s-44.6°C0%0hPa0V00:00:0000:00:0000:00:00
WB7NNF2026-09-04 06:10:2048.01458-117.5923817°60km/h12319m4.0m/s-44.9°C0%0hPa0V00:00:0000:00:0000:00:00
WB7NNF2026-09-04 06:10:0048.01145-117.5936022°62km/h12231m4.6m/s-44.7°C0%0hPa0V00:00:0000:00:0000:00:00
WB7NNF2026-09-04 06:09:3948.00851-117.5948066km/h12146m5.9m/s-44.8°C0%0hPa0V00:00:0000:00:0000:00:00
WB7NNF2026-09-04 06:09:1948.00513-117.5959317°66km/h12057m4.3m/s-45.3°C0%0hPa0V00:00:0000:00:0000:00:00
WB7NNF2026-09-04 06:08:5848.00112-117.5971117°89km/h11971m3.0m/s-45.4°C0%0hPa0V00:00:0000:00:0000:00:00
WB7NNF2026-09-04 06:08:3647.99734-117.5983012°51km/h11884m4.6m/s-45.7°C0%0hPa0V00:00:0000:00:0000:00:00
WB7NNF2026-09-04 06:08:1447.99302-117.5996014°77km/h11792m4.5m/s-45.8°C0%0hPa0V00:00:0000:00:0000:00:00
WB7NNF2026-09-04 06:07:5347.98925-117.6006810°77km/h11707m4.7m/s-46.0°C0%0hPa0V00:00:0000:00:0000:00:00
WB7NNF2026-09-04 06:07:3247.98553-117.6013973km/h11624m5.2m/s-45.9°C0%0hPa0V00:00:0000:00:0000:00:00
WB7NNF2026-09-04 06:07:0647.98132-117.6026222°64km/h11516m3.1m/s-45.8°C0%0hPa0V00:00:0000:00:0000:00:00
WB7NNF2026-09-04 06:06:4547.97811-117.6034915°62km/h11435m2.6m/s-45.8°C0%0hPa0V00:00:0000:00:0000:00:00
WB7NNF2026-09-04 06:06:2547.97486-117.6042162km/h11348m4.8m/s-45.6°C0%0hPa0V00:00:0000:00:0000:00:00
WB7NNF2026-09-04 06:06:0147.97130-117.6054723°68km/h11250m3.2m/s-45.1°C0%0hPa0V00:00:0000:00:0000:00:00
WB7NNF2026-09-04 06:05:3547.96744-117.6074210°69km/h11139m2.7m/s-45.2°C0%0hPa0V00:00:0000:00:0000:00:00
WB7NNF2026-09-04 06:05:1447.96408-117.6094023°51km/h11042m5.9m/s-45.5°C0%0hPa0V00:00:0000:00:0000:00:00
WB7NNF2026-09-04 06:04:5347.96080-117.6115919°95km/h10948m3.0m/s-45.9°C0%0hPa0V00:00:0000:00:0000:00:00
WB7NNF2026-09-04 06:04:3347.95675-117.6144429°97km/h10855m3.6m/s-47.1°C0%0hPa0V00:00:0000:00:0000:00:00
WB7NNF2026-09-04 06:04:1247.95268-117.6165920°95km/h10766m7.3m/s-47.3°C0%0hPa0V00:00:0000:00:0000:00:00
WB7NNF2026-09-04 06:03:5247.94780-117.6196513°117km/h10645m4.3m/s-47.8°C0%0hPa0V00:00:0000:00:0000:00:00
WB7NNF2026-09-04 06:03:3147.94240-117.6222813°128km/h10563m4.2m/s-48.2°C0%0hPa0V00:00:0000:00:0000:00:00
WB7NNF2026-09-04 06:03:1147.93657-117.6249214°119km/h10479m4.0m/s-48.6°C0%0hPa0V00:00:0000:00:0000:00:00
WB7NNF2026-09-04 06:02:5047.93124-117.6272310°124km/h10394m3.8m/s-49.6°C0%0hPa0V00:00:0000:00:0000:00:00
WB7NNF2026-09-04 06:02:3047.92505-117.6299016°120km/h10299m3.7m/s-49.7°C0%0hPa0V00:00:0000:00:0000:00:00
WB7NNF2026-09-04 06:02:0947.91927-117.6327415°117km/h10193m6.4m/s-49.7°C0%0hPa0V00:00:0000:00:0000:00:00
WB7NNF2026-09-04 06:01:4947.91194-117.63490144km/h10076m4.9m/s-51.6°C0%0hPa0V00:00:0000:00:0000:00:00
WB7NNF2026-09-04 06:01:2847.90479-117.6356110°148km/h9987m6.5m/s-50.9°C0%0hPa0V00:00:0000:00:0000:00:00
WB7NNF2026-09-04 06:01:0847.89697-117.63575144km/h9888m6.8m/s-50.3°C0%0hPa0V00:00:0000:00:0000:00:00
WB7NNF2026-09-04 06:00:4747.89005-117.63598142km/h9797m4.9m/s-49.6°C0%0hPa0V00:00:0000:00:0000:00:00
WB7NNF2026-09-04 06:00:2747.88290-117.63629356°130km/h9707m2.5m/s-48.8°C0%0hPa0V00:00:0000:00:0000:00:00
WB7NNF2026-09-04 06:00:0647.87647-117.6364910°130km/h9612m5.9m/s-48.0°C0%0hPa0V00:00:0000:00:0000:00:00
WB7NNF2026-09-04 05:59:4247.86820-117.63713141km/h9476m8.2m/s-46.8°C0%0hPa0V00:00:0000:00:0000:00:00
WB7NNF2026-09-04 05:59:2147.86171-117.63698124km/h9359m4.5m/s-45.7°C0%0hPa0V00:00:0000:00:0000:00:00
WB7NNF2026-09-04 05:59:0147.85499-117.63739122km/h9239m3.6m/s-44.6°C0%0hPa0V00:00:0000:00:0000:00:00
WB7NNF2026-09-04 05:58:4047.84860-117.63786358°102km/h9110m5.4m/s-43.5°C0%0hPa0V00:00:0000:00:0000:00:00
WB7NNF2026-09-04 05:58:1847.84298-117.6377111°124km/h8994m5.5m/s-42.5°C0%0hPa0V00:00:0000:00:0000:00:00
WB7NNF2026-09-04 05:57:5747.83696-117.63824357°113km/h8875m6.2m/s-41.4°C0%0hPa0V00:00:0000:00:0000:00:00
WB7NNF2026-09-04 05:57:3747.83108-117.63854353°104km/h8783m6.3m/s-40.7°C0%0hPa0V00:00:0000:00:0000:00:00
WB7NNF2026-09-04 05:57:1647.82555-117.63875360°130km/h8675m4.2m/s-39.8°C0%0hPa0V00:00:0000:00:0000:00:00
WB7NNF2026-09-04 05:56:5247.81922-117.63915358°91km/h8551m4.2m/s-38.6°C0%0hPa0V00:00:0000:00:0000:00:00
WB7NNF2026-09-04 05:56:3147.81350-117.63836120km/h8435m4.9m/s-37.6°C0%0hPa0V00:00:0000:00:0000:00:00
WB7NNF2026-09-04 05:56:0847.80734-117.6385112°122km/h8311m5.6m/s-36.5°C0%0hPa0V00:00:0000:00:0000:00:00
WB7NNF2026-09-04 05:55:4147.80039-117.63905358°100km/h8182m5.5m/s-35.4°C0%0hPa0V00:00:0000:00:0000:00:00
WB7NNF2026-09-04 05:55:2047.79483-117.63918353°126km/h8088m2.3m/s-34.5°C0%0hPa0V00:00:0000:00:0000:00:00
WB7NNF2026-09-04 05:55:0047.78938-117.63914108km/h7996m5.1m/s-33.8°C0%0hPa0V00:00:0000:00:0000:00:00
WB7NNF2026-09-04 05:54:3947.78424-117.63922352°97km/h7910m5.4m/s-33.2°C0%0hPa0V00:00:0000:00:0000:00:00
WB7NNF2026-09-04 05:54:1947.77902-117.6387280km/h7819m3.5m/s-32.6°C0%0hPa0V00:00:0000:00:0000:00:00
WB7NNF2026-09-04 05:53:5847.77367-117.63839360°84km/h7725m3.5m/s-31.9°C0%0hPa0V00:00:0000:00:0000:00:00
WB7NNF2026-09-04 05:53:3247.76794-117.63809352°95km/h7616m4.2m/s-31.1°C0%0hPa0V00:00:0000:00:0000:00:00
WB7NNF2026-09-04 05:52:5547.75978-117.6368868km/h7428m3.6m/s-29.5°C0%0hPa0V00:00:0000:00:0000:00:00
WB7NNF2026-09-04 05:52:3447.75555-117.63653344°86km/h7317m3.2m/s-28.8°C0%0hPa0V00:00:0000:00:0000:00:00
WB7NNF2026-09-04 05:52:1447.75128-117.63613360°93km/h7221m4.5m/s-28.2°C0%0hPa0V00:00:0000:00:0000:00:00
WB7NNF2026-09-04 05:51:3147.74268-117.6370589km/h6985m4.6m/s-26.8°C0%0hPa0V00:00:0000:00:0000:00:00
WB7NNF2026-09-04 05:51:1047.73897-117.6376220°77km/h6881m4.0m/s-26.1°C0%0hPa0V00:00:0000:00:0000:00:00
WB7NNF2026-09-04 05:50:4847.73539-117.63849357°84km/h6762m3.1m/s-25.2°C0%0hPa0V00:00:0000:00:0000:00:00
WB7NNF2026-09-04 05:50:2447.73134-117.6389913°58km/h6643m6.2m/s-24.2°C0%0hPa0V00:00:0000:00:0000:00:00
WB7NNF2026-09-04 05:50:0347.72809-117.6397549km/h6520m5.0m/s-23.4°C0%0hPa0V00:00:0000:00:0000:00:00
WB7NNF2026-09-04 05:49:4347.72516-117.6404128°66km/h6415m5.8m/s-22.7°C0%0hPa0V00:00:0000:00:0000:00:00
WB7NNF2026-09-04 05:49:2247.72197-117.6411031°64km/h6310m5.4m/s-21.9°C0%0hPa0V00:00:0000:00:0000:00:00
WB7NNF2026-09-04 05:48:5047.71721-117.6422522°73km/h6130m4.4m/s-20.8°C0%0hPa0V00:00:0000:00:0000:00:00
WB7NNF2026-09-04 05:47:3047.70602-117.6463149km/h5710m7.4m/s0°C0%0hPa0V00:00:0000:00:0000:00:00
WB7NNF2026-09-04 05:45:3247.69227-117.6514324°51km/h5077m4.7m/s-14.0°C0%0hPa0V00:00:0000:00:0000:00:00


GPX KML Map

© wettersonde.net (DO2JMG) - 2026  -  -